Flag for Kazakhstan Weather past 2 weeks in Aqtobe, Kazakhstan

Now
102 °F

Passing clouds.


Feels Like: 96 °F
Forecast: 77 / 99 °F
Wind: 15 mph from Southwest

Location: Aktjubinsk

Current Time: Aug 21, 2014 at 2:21:54 PM

Latest Report: Aug 21, 2014 at 2:00 PM


Visibility: N/A

Pressure: 29.92 "Hg

Humidity: 8%

Dew point: 30 °F

Location of AqtobeLocation

Historic Weather in Aqtobe — Graph

°F

Aqtobe temperature yesterday

Maximum temperature yesterday: 102 °F (at 2:30 PM)
Minimum temperature yesterday: 59 °F (at 4:00 AM)
Average temperature yesterday: 82 °F

Past Weeks' High & Low Weather Summary

 TemperatureHumidityPressure
High102 °F (Aug 19, 3:00 PM)83% (Aug 13, 7:00 AM)30.07 "Hg (Aug 13, 7:00 AM)
Low50 °F (Aug 14, 5:00 AM)7% (Aug 20, 2:30 PM)29.68 "Hg (Aug 10, 2:00 PM)
Average78 °F33%29.89 "Hg
* Reported Aug 6 1:00 PM — Aug 21 1:00 PM, Aqtobe, Weather by CustomWeather, © 2014

Note: Actual official high and low records may vary slightly from our data, if they occured in-between our weather recording intervals... More about our weather records

Advertising

Aqtobe weather history for previous 24 hours

 ConditionsComfort  
Time TempWeatherWind HumidityBarometerVisibility
1:00 PM
Aug 21
100 °FClear.6 mph11%29.95 "HgN/A
12:30 PM97 °FClear.3 mph13%29.95 "Hg6 mi
12:00 PM95 °FClear.3 mph16%29.95 "Hg4 mi
11:30 AM91 °FClear.6 mph18%29.98 "Hg4 mi
11:00 AM90 °FClear.6 mph20%29.98 "Hg4 mi
10:30 AM88 °FClear.8 mph19%29.98 "Hg3 mi
10:00 AM86 °FClear.6 mph17%29.98 "Hg3 mi
9:30 AM82 °FSunny.8 mph17%29.98 "Hg10 mi
9:00 AM81 °FSunny.8 mph18%29.98 "Hg10 mi
8:30 AM77 °FSunny.3 mph19%29.98 "Hg10 mi
8:00 AM73 °FSunny.8 mph23%29.98 "Hg10 mi
7:30 AM70 °FSunny.8 mph25%29.98 "Hg10 mi
7:00 AM68 °FSunny.8 mph26%29.98 "Hg10 mi
6:30 AM64 °FSunny.8 mph30%29.98 "Hg10 mi
6:00 AM63 °FClear.6 mph32%29.98 "Hg10 mi
5:30 AM66 °FClear.8 mph28%29.98 "Hg10 mi
5:00 AM66 °FClear.8 mph28%29.98 "Hg10 mi
4:30 AM64 °FClear.8 mph30%29.98 "Hg10 mi
4:00 AM66 °FClear.3 mph28%29.98 "Hg10 mi
3:30 AM66 °FClear.8 mph28%29.98 "Hg10 mi
3:00 AM68 °FClear.8 mph26%29.98 "Hg10 mi
2:30 AM66 °FClear.8 mph28%29.98 "Hg10 mi
2:00 AM66 °FClear.3 mph26%29.98 "Hg10 mi
1:30 AM66 °FClear.8 mph28%29.98 "Hg10 mi
1:00 AM66 °FClear.6 mph26%29.98 "Hg10 mi
12:30 AM70 °FClear.8 mph23%29.98 "Hg10 mi
12:00 AM70 °FClear.6 mph23%29.98 "Hg10 mi
11:30 PM
Aug 20
70 °FClear.6 mph21%29.98 "Hg10 mi
11:00 PM70 °FClear.3 mph21%29.98 "Hg10 mi
10:30 PM73 °FClear.3 mph19%29.98 "Hg10 mi
10:00 PM75 °FClear.6 mph16%30.01 "Hg10 mi
9:30 PM79 °FClear.3 mph15%30.01 "Hg10 mi
9:00 PM81 °FClear.3 mph13%30.01 "Hg10 mi
8:30 PM86 °FPassing clouds.6 mph11%29.98 "HgN/A
8:00 PM91 °FSunny.8 mph10%29.98 "Hg10 mi
7:30 PM97 °FSunny.10 mph8%29.98 "Hg10 mi
7:00 PM99 °FSunny.10 mph7%29.98 "Hg10 mi
6:30 PM100 °FSunny.15 mph7%29.98 "Hg10 mi
6:00 PM100 °FSunny.15 mph7%29.98 "Hg10 mi
5:30 PM100 °FSunny.15 mph7%29.98 "Hg10 mi
5:00 PM102 °FPassing clouds.13 mph7%29.98 "HgN/A
4:30 PM102 °FSunny.15 mph7%30.01 "Hg10 mi
4:00 PM102 °FPassing clouds.13 mph7%30.01 "HgN/A
3:30 PM102 °FSunny.13 mph7%30.01 "Hg10 mi
3:00 PM100 °FSunny.17 mph7%30.01 "Hg10 mi
2:30 PM102 °FSunny.20 mph7%30.04 "Hg10 mi
2:00 PM100 °FSunny.22 mph8%30.04 "Hg10 mi
Weather by CustomWeather, © 2014

See weather overviewHow to use our weather pages